Simultaneous Nadir Overpasses (SNOs) Predictions

Prediction of SNOs between AQUA and TERRA Satellite Orbit:

Table of predicted SNOs for the next 14.0 days since TLE Epoch: 8/26/2022
Index Date (AQUA) Time (AQUA) Lat,Lon (AQUA) SZA (AQUA ) Date (TERRA) Time (TERRA) Lat,Lon (TERRA) SZA (TERRA ) Distance(km) Time Diff (sec)
1 09/08/2022 07:58:27 -70.69,-118.84 115.06 09/08/2022 07:57:21 -70.70,-121.43 115.05 95.17 66
2 09/08/2022 09:37:19 -70.69,-143.55 115.04 09/08/2022 09:36:14 -70.70,-146.15 115.03 95.60 65
3 09/08/2022 11:16:12 -70.74,-168.35 114.96 09/08/2022 11:15:06 -70.75,-170.80 114.95 89.72 66
4 09/08/2022 12:05:37 70.65, -0.57 64.97 09/08/2022 12:04:32 70.69, -3.25 65.00 98.76 65
5 09/08/2022 12:55:05 -70.80, 166.85 114.88 09/08/2022 12:53:58 -70.80, 164.56 114.87 83.85 67
6 09/08/2022 13:44:30 70.71, -25.37 65.05 09/08/2022 13:43:25 70.68, -27.98 65.02 95.97 65
7 09/08/2022 14:33:57 -70.80, 142.14 114.86 09/08/2022 14:32:51 -70.80, 139.83 114.85 84.28 66
8 09/08/2022 15:23:23 70.76, -50.17 65.12 09/08/2022 15:22:17 70.73, -52.62 65.10 90.08 66
9 09/08/2022 16:12:50 -70.85, 117.34 114.78 09/08/2022 16:11:43 -70.85, 115.19 114.77 78.40 67
10 09/08/2022 17:02:14 70.76, -74.88 65.15 09/08/2022 17:01:08 70.79, -77.26 65.18 87.38 66
11 09/08/2022 17:51:42 -70.90, 92.54 114.70 09/08/2022 17:50:34 -70.90, 90.55 114.70 72.52 68
12 09/08/2022 18:41:07 70.81, -99.68 65.23 09/08/2022 18:40:01 70.78,-101.99 65.20 84.62 66
13 09/08/2022 19:30:34 -70.90, 67.83 114.68 09/08/2022 19:29:27 -70.90, 65.82 114.67 72.96 67
14 09/08/2022 20:20:00 70.86,-124.48 65.31 09/08/2022 20:18:53 70.83,-126.63 65.28 78.73 67
15 09/08/2022 21:09:27 -70.95, 43.03 114.60 09/08/2022 21:08:19 -70.95, 41.18 114.60 67.08 68
16 09/08/2022 21:58:52 70.86,-149.19 65.33 09/08/2022 21:57:45 70.89,-151.27 65.35 75.99 67
17 09/08/2022 22:48:20 -71.01, 18.23 114.52 09/08/2022 22:47:11 -71.00, 16.54 114.52 61.20 69
18 09/08/2022 23:37:45 70.92,-173.99 65.41 09/08/2022 23:36:38 70.88,-176.00 65.38 73.27 67
19 09/09/2022 00:27:12 -71.00, -6.48 114.49 09/09/2022 00:26:04 -71.00, -8.19 114.50 61.63 68
20 09/09/2022 01:16:37 70.91, 161.30 65.43 09/09/2022 01:15:30 70.93, 159.36 65.45 70.51 67
21 09/09/2022 02:06:05 -71.06, -31.28 114.42 09/09/2022 02:04:56 -71.05, -32.83 114.42 55.76 69
22 09/09/2022 02:55:30 70.97, 136.50 65.51 09/09/2022 02:54:22 70.99, 134.72 65.53 64.61 68
23 09/09/2022 03:44:58 -71.11, -56.08 114.34 09/09/2022 03:43:48 -71.10, -57.47 114.34 49.89 70
24 09/09/2022 04:34:23 71.02, 111.70 65.59 09/09/2022 04:33:15 70.98, 109.99 65.56 61.94 68
25 09/09/2022 05:23:50 -71.11, -80.80 114.31 09/09/2022 05:22:41 -71.10, -82.19 114.32 50.32 69
26 09/09/2022 06:13:15 71.02, 86.98 65.62 09/09/2022 06:12:07 71.03, 85.35 65.63 59.12 68
27 09/09/2022 07:02:43 -71.16,-105.60 114.23 09/09/2022 07:01:33 -71.15,-106.83 114.24 44.45 70
28 09/09/2022 07:52:08 71.07, 62.18 65.69 09/09/2022 07:50:59 71.09, 60.71 65.71 53.22 69
29 09/09/2022 08:41:35 -71.16,-130.31 114.21 09/09/2022 08:40:25 -71.20,-131.47 114.17 42.03 70
30 09/09/2022 09:31:01 71.12, 37.38 65.77 09/09/2022 09:29:52 71.08, 35.98 65.73 50.63 69
31 09/09/2022 10:20:28 -71.21,-155.11 114.13 09/09/2022 10:19:18 -71.20,-156.20 114.14 39.01 70
32 09/09/2022 11:09:53 71.12, 12.67 65.80 09/09/2022 11:08:44 71.13, 11.34 65.81 47.73 69
33 09/09/2022 11:59:21 -71.26,-179.91 114.05 09/09/2022 11:58:10 -71.25, 179.16 114.07 33.14 71
34 09/09/2022 12:48:46 71.18, -12.13 65.88 09/09/2022 12:47:36 71.19, -13.30 65.89 41.83 70
35 09/09/2022 13:38:13 -71.26, 155.37 114.03 09/09/2022 13:37:02 -71.30, 154.52 113.99 30.74 71
36 09/09/2022 14:27:39 71.23, -36.93 65.96 09/09/2022 14:26:29 71.18, -38.02 65.91 39.37 70
37 09/09/2022 15:17:06 -71.31, 130.57 113.95 09/09/2022 15:15:55 -71.30, 129.80 113.97 27.71 71
38 09/09/2022 16:06:31 71.23, -61.65 65.98 09/09/2022 16:05:21 71.23, -62.66 65.99 36.35 70
39 09/09/2022 16:55:59 -71.37, 105.77 113.87 09/09/2022 16:54:47 -71.35, 105.16 113.89 21.86 72
40 09/09/2022 17:45:24 71.28, -86.45 66.06 09/09/2022 17:44:13 71.29, -87.30 66.06 30.44 71
41 09/09/2022 18:34:51 -71.37, 81.06 113.85 09/09/2022 18:33:40 -71.35, 80.43 113.87 22.30 71
42 09/09/2022 19:24:16 71.28,-111.16 66.08 09/09/2022 19:23:06 71.28,-112.03 66.09 30.86 70
43 09/09/2022 20:13:44 -71.42, 56.25 113.77 09/09/2022 20:12:32 -71.40, 55.79 113.79 16.48 72
44 09/09/2022 21:03:09 71.33,-135.97 66.16 09/09/2022 21:01:58 71.33,-136.67 66.16 24.96 71
45 09/09/2022 21:52:36 -71.42, 31.54 113.74 09/09/2022 21:51:24 -71.45, 31.15 113.71 14.13 72



Historial Predications of SNOs between AQUA and TERRA
